Location: Poughquag
(41.6090°N, 73.6820°W)
Time: 03:39:11
(UTC-04:00)

Transit 2A - Pass Details

Date: 05 June 2020
Orbit: 592 x 967 km, 66.7° (Epoch: 06 July)

Event Time Altitude Azimuth Distance (km) Brightness Sun altitude
Rises 22:17:38 0° 324° (NW) 3,588 11.3 -16.3°
Reaches altitude 10° 22:20:13 10° 320° (NW) 2,671 10.1 -16.6°
Maximum altitude 22:26:15 50° 247° (WSW) 1,219 7.1 -17.2°
Enters shadow 22:30:23 21° 182° (S) 2,035 7.7 -17.7°
Drops below altitude 10° 22:32:20 10° 174° (S) 2,684 - -17.9°
Sets 22:34:56 0° 169° (S) 3,606 - -18.1°
